TimeCST,TemperatureF,Dew PointF,Humidity,Sea Level PressureIn,VisibilityMPH,Wind Direction,Wind SpeedMPH,Gust SpeedMPH,PrecipitationIn,Events,Conditions,WindDirDegrees,DateUTC
12:45 AM,42.8,39.2,87,30.44,5.0,Calm,Calm,-,N/A,,Partly Cloudy,0,2012-11-27 06:45:00
1:45 AM,41.0,37.4,87,30.44,5.0,Calm,Calm,-,N/A,,Partly Cloudy,0,2012-11-27 07:45:00
2:45 AM,35.6,32.0,87,29.99,5.0,SE,4.6,-,N/A,,Scattered Clouds,140,2012-11-27 08:45:00
3:45 AM,33.8,32.0,93,30.41,4.0,SE,3.5,-,N/A,,Scattered Clouds,140,2012-11-27 09:45:00
4:45 AM,35.6,32.0,87,30.40,4.0,Calm,Calm,-,N/A,,Scattered Clouds,0,2012-11-27 10:45:00
5:45 AM,33.8,32.0,93,30.04,3.0,Calm,Calm,-,N/A,,Scattered Clouds,0,2012-11-27 11:45:00
7:45 AM,35.6,32.0,87,30.45,3.0,Calm,Calm,-,N/A,,Haze,0,2012-11-27 13:45:00
8:45 AM,42.8,37.4,81,30.09,3.0,Calm,Calm,-,N/A,,Smoke,0,2012-11-27 14:45:00
9:45 AM,51.8,37.4,58,30.49,5.0,Calm,Calm,-,N/A,,Clear,0,2012-11-27 15:45:00
10:45 AM,62.6,33.8,34,30.48,5.0,South,5.8,-,N/A,,Clear,180,2012-11-27 16:45:00
11:45 AM,68.0,26.6,21,29.92,7.0,South,10.4,-,N/A,,Clear,170,2012-11-27 17:45:00
12:45 PM,68.0,26.6,21,30.44,8.0,South,11.5,-,N/A,,Scattered Clouds,170,2012-11-27 18:45:00
1:45 PM,69.8,26.6,20,30.41,8.0,South,12.7,-,N/A,,Mostly Cloudy,170,2012-11-27 19:45:00
2:45 PM,68.0,26.6,21,29.93,10.0,SSE,10.4,-,N/A,,Mostly Cloudy,160,2012-11-27 20:45:00
3:45 PM,68.0,26.6,21,30.39,10.0,SSE,10.4,-,N/A,,Mostly Cloudy,160,2012-11-27 21:45:00
4:45 PM,66.2,24.8,21,30.39,10.0,SSE,10.4,-,N/A,,Mostly Cloudy,150,2012-11-27 22:45:00
5:45 PM,60.8,28.4,29,30.03,8.0,South,10.4,-,N/A,,Mostly Cloudy,190,2012-11-27 23:45:00
6:45 PM,53.6,30.2,41,30.44,7.0,ESE,8.1,-,N/A,,Scattered Clouds,120,2012-11-28 00:45:00
7:45 PM,51.8,39.2,62,30.48,7.0,East,8.1,-,N/A,,Scattered Clouds,80,2012-11-28 01:45:00
8:45 PM,50.0,39.2,66,30.13,7.0,North,3.5,-,N/A,,Partly Cloudy,350,2012-11-28 02:45:00
9:45 PM,48.2,39.2,71,30.51,7.0,South,5.8,-,N/A,,Partly Cloudy,180,2012-11-28 03:45:00
10:45 PM,44.6,37.4,76,30.53,7.0,WNW,5.8,-,N/A,,Partly Cloudy,290,2012-11-28 04:45:00
11:47 PM,42.8,37.4,81,29.87,7.0,West,4.6,-,N/A,,Partly Cloudy,260,2012-11-28 05:47:00